K4SGK Weather Reports


Display with metric or nautical units.
time (UTC)temp
F
wind
direction
speed
MPH
gust
MPH
rain 1hr
in
rain 24hr
in
rain mn
in
humidity
%
barometer
mb
20260503215004 62 254 5.0 8.0 0.00 0.00 0.00 40 1014.1
20260503214004 63 308 3.0 7.0 0.00 0.00 0.00 39 1014.2
20260503213004 63 254 4.0 9.0 0.00 0.00 0.00 37 1014.2
20260503212004 63 233 4.0 8.0 0.00 0.00 0.00 41 1014.6
20260503211004 64 249 4.0 7.0 0.00 0.00 0.00 36 1014.8
20260503210004 63 265 4.0 8.0 0.00 0.00 0.00 36 1015.1
20260503205004 63 271 6.0 10.0 0.00 0.00 0.00 34 1015.3
20260503203003 62 328 2.0 15.0 0.00 0.00 0.00 36 1015.5
20260503202004 62 280 3.0 9.0 0.00 0.00 0.00 35 1015.8
20260503201003 62 265 5.0 10.0 0.00 0.00 0.00 34 1016.1
20260503200004 62 247 6.0 12.0 0.00 0.00 0.00 34 1016.3
20260503194004 61 265 5.0 9.0 0.00 0.00 0.00 41 1016.6
20260503193004 61 256 5.0 12.0 0.00 0.00 0.00 38 1016.6
20260503192004 61 251 5.0 9.0 0.00 0.00 0.00 38 1016.8
20260503191004 61 181 3.0 8.0 0.00 0.00 0.00 41 1016.9
20260503190004 61 259 5.0 10.0 0.00 0.00 0.00 41 1017.0
20260503185004 61 186 4.0 8.0 0.00 0.00 0.00 41 1017.2
20260503184004 61 229 5.0 9.0 0.00 0.00 0.00 43 1017.4
20260503183004 60 240 3.0 9.0 0.00 0.00 0.00 43 1017.3
20260503182005 60 275 3.0 9.0 0.00 0.00 0.00 45 1017.4
20260503181004 59 260 6.0 12.0 0.00 0.00 0.00 45 1017.4
20260503180004 59 223 5.0 9.0 0.00 0.00 0.00 47 1017.5
20260503175003 59 230 3.0 8.0 0.00 0.00 0.00 43 1017.8
20260503174003 59 239 6.0 12.0 0.00 0.00 0.00 44 1017.9
20260503173003 59 243 5.0 8.0 0.00 0.00 0.00 45 1017.9
20260503172003 58 246 2.0 6.0 0.00 0.00 0.00 44 1018.1
20260503171004 58 252 6.0 9.0 0.00 0.00 0.00 45 1018.5
20260503131005 44 256 2.0 3.0 0.00 0.00 0.00 92 1019.2
20260503081005 38 312 0.0 1.0 0.00 0.00 0.00 95 1017.4
20260503072005 39 312 0.0 1.0 0.00 0.00 0.00 94 1017.0
20260503071004 39 312 0.0 1.0 0.00 0.00 0.00 94 1017.0
20260503055004 40 0 0.0 1.0 0.00 0.00 0.00 92 1016.7
20260503054004 41 0 0.0 1.0 0.00 0.00 0.00 91 1016.7
20260503053004 41 0 0.0 1.0 0.00 0.00 0.00 91 1016.7
20260503052004 41 0 0.0 1.0 0.00 0.00 0.00 90 1016.6
20260503051004 42 0 0.0 1.0 0.00 0.00 0.00 90 1016.6
20260503050005 42 0 0.0 0.0 0.00 0.00 0.00 90 1016.6
20260503045004 42 0 0.0 0.0 0.00 0.00 0.00 89 1016.6
20260503044004 42 0 0.0 0.0 0.00 0.00 0.00 88 1016.6
20260503043005 42 0 0.0 1.0 0.00 0.00 0.00 87 1016.6
20260503042004 43 0 0.0 1.0 0.00 0.00 0.00 86 1016.3
20260503035003 44 355 0.0 0.0 0.00 0.00 0.00 84 1016.3
20260503033004 45 351 0.0 0.0 0.00 0.00 0.00 81 1016.3
20260503032004 45 351 0.0 0.0 0.00 0.00 0.00 80 1016.3
20260503030004 46 348 0.0 0.0 0.00 0.00 0.00 78 1016.2
20260503025004 46 346 0.0 0.0 0.00 0.00 0.00 76 1016.2
20260503023004 48 221 0.0 0.0 0.00 0.00 0.00 73 1015.9
20260503021004 49 6 2.0 3.0 0.00 0.00 0.00 68 1016.1
20260503020004 50 227 1.0 2.0 0.00 0.00 0.00 69 1015.7
20260503015004 50 15 1.0 1.0 0.00 0.00 0.00 69 1015.5
20260503013004 50 15 0.0 0.0 0.00 0.00 0.00 70 1015.2
20260503012004 51 15 0.0 0.0 0.00 0.00 0.00 69 1015.2
20260503011004 51 15 0.0 0.0 0.00 0.00 0.00 68 1015.1
20260503010004 51 15 0.0 0.0 0.00 0.00 0.00 66 1015.0
20260503003005 52 15 0.0 3.0 0.00 0.00 0.00 59 1014.7
20260503002004 53 213 1.0 3.0 0.00 0.00 0.00 58 1014.6
20260503001004 53 214 1.0 5.0 0.00 0.00 0.00 58 1014.4
20260503000003 53 225 2.0 5.0 0.00 0.00 0.00 57 1014.2
20260502234004 54 20 1.0 3.0 0.00 0.00 0.00 57 1014.0
20260502233004 54 0 2.0 3.0 0.00 0.00 0.00 56 1014.0
20260502232005 54 269 3.0 5.0 0.00 0.00 0.00 54 1014.0
20260502231004 54 343 2.0 3.0 0.00 0.00 0.00 55 1014.0
20260502230004 55 7 2.0 3.0 0.00 0.00 0.00 54 1013.9
20260502225004 55 5 2.0 3.0 0.00 0.00 0.00 56 1013.9
20260502224004 55 15 1.0 5.0 0.00 0.00 0.00 54 1013.8
20260502223004 55 2 1.0 3.0 0.00 0.00 0.00 54 1013.8
20260502222004 55 349 0.0 3.0 0.00 0.00 0.00 55 1013.8
20260502221004 55 6 2.0 5.0 0.00 0.00 0.00 52 1013.8
20260502220003 55 9 1.0 3.0 0.00 0.00 0.00 55 1013.8